CZ-4C DEB (44212 NORAD) Tracking and Keplerian Element Data

This shows tracking and keplerian element data for the satellite.

Feedback or suggestion? Click here.




ElementValue
Catalog44212
NameCZ-4C DEB
Epoch Orbit429
Epoch Day148.8383227
Epoch Year2019
RAAN156.081
Inclination97.4628
Eccentricity0.0008811
Argument of Perigee208.2915
Mean Anonmoly151.7829
Mean Motion15.1966103
Decay Rate1.047E-05
L11 44212U 19024F 19148.83832270 .00001047 00000-0 52273-4 0 9990
L22 44212 97.4628 156.0810 0008811 208.2915 151.7829 15.19661030 4297

Live tracking and technical data element details for CZ-4C DEB (NORAD 44212). CZ-4C DEB can be tracked NOW for your location showing map with azimuth and elevation plus other details from your city location.

Track the satellite on the map from your city or location and see movement details for azimuth, elevation, latitude, longitude, range, height, and movement on the map or in text.







IsCatalogInMostPopularTable: catalog: 44212, numindb: 16
Update: records affected: 1



GetName: 44212 CZ-4C DEB

Hit Count: updated at: Sat, 20 Jul 2019 22:21:12 GMT